Location: Unspecified
(0.0000°N, 0.0000°E)
Time: 16:20:30
(UTC+00:00)

Altair - Pass Details

Date: 25 November 2019
Orbit: 1502 x 1682 km, 47.2° (Epoch: 12 December)

Event Time Altitude Azimuth Distance (km) Brightness Sun altitude
Rises 20:42:37 0° 204° (SSW) 4,870 10.7 -40.4°
Reaches altitude 10° 20:46:09 10° 196° (SSW) 3,859 10.0 -41.2°
Enters shadow 20:51:56 31° 165° (SSE) 2,531 8.6 -42.5°
Maximum altitude 20:54:58 37° 131° (SE) 2,274 - -43.1°
Drops below altitude 10° 21:03:26 10° 67° (ENE) 3,722 - -45.0°
Sets 21:06:44 0° 59° (ENE) 4,681 - -45.7°
